Dewpoint
63 67 68 68 68 69 70 69 69 69 69 69 68 68 67 67 67 66 65 64 63 62 61 62 63 65 66 65 65 64 65 66 64 64 66 67 67 68 69 68 68 66 68
65 68 69 69 69 68 69 68 68 68 68 69 68 67 66 66 67 66 65 63 63 62 61 62 63 65 66 67 65 65 64 66 67 66 67 68 67 67 68 68 67 66 68
66 67 68 69 68 68 67 68 68 69 69 68 68 67 65 65 66 66 65 63 62 61 62 63 62 65 67 67 66 66 65 64 65 65 66 59 59 68 68 68 68 68 68
65 67 67 68 69 69 69 69 69 70 69 69 68 67 66 66 66 67 65 62 61 60 61 62 64 63 64 63 63 65 65 65 64 63 60 61 62 67 67 67 68 67 67
64 66 67 68 68 68 69 70 70 71 70 69 69 68 68 67 66 67 64 61 62 62 62 63 63 65 66 66 66 65 64 63 63 64 62 62 63 65 66 67 66 67 67
62 65 67 67 68 68 68 68 68 69 69 68 68 68 67 67 66 65 64 64 63 63 63 63 63 62 63 65 65 65 64 64 64 63 61 62 63 64 66 67 66 66 66
60 64 65 66 67 67 67 67 66 66 67 68 68 67 67 66 65 63 62 63 63 63 63 64 63 62 61 61 61 61 62 63 62 60 62 62 62 64 64 64 65 65 64
59 62 63 66 66 66 66 66 66 66 67 66 66 67 67 66 65 65 64 63 62 61 62 62 63 64 64 64 64 63 63 64 63 63 63 63 64 63 62 62 63 65 64
61 62 63 62 63 64 64 64 65 65 66 65 65 65 65 65 64 63 62 61 60 61 61 60 61 61 61 60 60 60 62 62 63 63 62 62 62 63 62 62 63 63 63
61 61 61 61 60 60 61 62 63 64 65 64 63 62 62 62 61 61 58 59 60 60 60 59 59 58 58 58 58 57 56 58 59 60 60 61 61 62 62 63 63 64 63
60 60 60 60 58 58 59 61 62 63 65 64 62 61 60 59 59 58 59 58 59 59 59 58 57 56 53 54 56 55 54 54 54 54 56 59 59 60 61 62 62 63 64
58 59 59 60 59 57 56 60 61 61 63 64 63 62 60 60 59 59 59 59 58 58 57 57 56 55 51 51 54 55 54 56 55 55 55 60 60 60 60 60 61 62 63
59 59 59 60 60 58 56 59 59 59 61 62 64 63 61 61 61 60 59 58 58 58 56 56 56 57 57 57 56 56 54 54 54 55 57 60 60 60 60 60 60 60 61
60 60 61 61 61 62 61 60 59 59 59 60 61 62 62 61 60 59 58 57 58 58 58 57 58 56 55 55 53 53 51 51 48 51 51 54 53 52 53 55 58 60 60
59 60 61 62 62 63 62 61 60 60 59 60 61 61 61 59 59 58 57 57 58 58 58 57 54 46 44 44 48 47 45 45 47 42 41 47 49 49 48 50 52 55 59
56 58 60 59 60 60 57 59 58 58 60 60 60 61 61 59 58 57 57 57 57 57 57 56 47 42 42 44 45 42 41 42 44 42 37 38 44 48 52 53 54 54 55
55 55 56 57 58 58 55 53 52 52 53 55 56 58 58 58 57 57 57 57 57 57 57 51 46 45 42 42 41 41 41 40 40 39 37 36 38 44 50 53 53 56 55
51 52 53 54 55 56 55 54 53 52 52 51 50 51 52 53 54 55 55 55 55 57 55 51 47 41 36 38 38 36 36 36 37 37 36 38 36 39 42 48 51 51 51
48 48 50 53 53 53 52 52 52 52 51 51 50 48 49 51 52 53 52 51 53 52 52 50 45 41 34 35 35 35 36 34 36 33 35 37 39 40 39 45 48 48 47
45 45 49 49 50 51 48 45 42 42 42 43 43 44 46 47 50 51 50 50 50 47 47 46 43 40 35 34 32 31 35 34 35 35 34 30 37 37 39 43 43 42 45
41 43 44 42 44 43 38 37 36 36 36 37 37 38 40 40 44 47 47 48 49 47 45 45 43 40 37 38 36 34 34 36 35 34 35 33 33 37 41 41 36 34 33
39 42 39 36 36 35 35 36 37 37 37 36 38 39 39 39 39 40 44 44 44 45 46 46 44 40 38 38 32 32 29 30 32 35 34 36 35 37 36 31 31 29 28
36 35 34 35 37 38 38 37 37 37 37 35 33 33 34 39 39 40 40 41 43 44 43 44 45 42 38 37 37 32 30 27 28 34 35 31 37 33 30 26 28 25 29
35 39 40 39 38 37 38 35 35 33 32 34 34 33 35 37 39 39 40 40 41 42 43 43 44 43 42 38 37 36 37 34 29 27 29 29 32 28 27 29 27 26 29
39 39 39 38 38 39 36 35 35 36 36 36 35 33 34 36 38 38 38 39 39 40 40 41 42 42 40 40 37 36 34 30 29 23 23 24 26 26 29 29 26 30 26
39 40 40 38 38 40 37 35 37 38 38 37 35 33 33 34 36 36 36 37 37 36 37 37 37 37 36 35 33 32 30 26 24 25 25 25 28 29 27 26 27 27 28
Wind_Speed
4 2 4 2 2 9 13 12 12 12 12 11 11 11 13 12 14 14 13 12 12 11 12 12 8 3 2 2 1 3 4 7 7 6 4 4 8 10 9 11 13 12 13
9 3 5 5 3 8 13 11 12 13 10 9 8 8 9 12 12 12 10 11 9 9 10 9 8 6 5 2 2 3 2 4 6 4 3 3 2 7 8 7 8 11 13
10 6 4 7 7 7 11 11 9 10 10 8 6 6 7 7 9 11 10 10 7 7 8 9 9 7 6 4 6 5 3 3 2 2 3 2 3 4 7 7 6 9 9
10 6 5 6 7 7 10 11 9 8 8 7 6 5 5 5 6 9 8 8 8 9 11 11 11 9 9 7 5 8 8 7 6 4 3 2 2 4 7 8 6 8 9
9 6 6 7 7 6 7 7 7 6 4 3 3 3 6 6 8 8 8 6 6 8 10 10 10 12 11 10 7 7 8 8 4 5 4 3 3 4 6 7 9 7 9
9 9 7 6 4 3 4 5 5 5 4 6 6 8 8 9 11 11 10 7 7 8 8 9 10 10 10 7 5 3 5 3 3 5 7 5 5 4 4 7 9 10 11
11 8 7 6 5 4 3 4 4 4 4 4 5 5 6 8 7 8 8 9 8 9 10 11 11 11 9 7 5 4 4 1 1 2 4 5 6 6 5 7 10 13 13
11 8 6 6 5 5 4 4 5 5 5 6 6 6 7 7 7 7 7 7 7 7 7 8 10 12 13 13 10 7 4 2 1 3 4 6 11 10 8 10 9 12 12
6 6 5 5 5 4 3 3 3 3 4 5 5 5 6 6 6 6 6 6 6 7 7 8 8 9 10 11 10 9 8 8 4 4 4 3 8 9 11 12 12 11 14
7 8 8 5 3 3 2 2 2 2 2 3 3 3 3 4 4 4 3 5 6 7 7 7 8 8 9 9 9 9 8 6 6 4 4 5 8 7 4 8 13 14 18
8 8 7 5 4 3 2 2 2 3 3 3 2 2 0 1 1 3 4 5 5 6 7 7 7 7 6 7 8 7 5 4 4 4 4 10 11 9 7 8 5 12 13
13 12 8 7 6 4 4 4 3 1 2 2 2 1 3 3 4 5 4 5 7 8 8 8 9 8 6 4 3 3 3 3 3 4 3 7 8 10 11 10 11 11 10
13 10 9 8 8 7 5 3 2 2 2 3 3 4 3 4 4 5 4 4 3 4 4 4 5 5 6 5 4 3 2 2 2 3 5 8 10 11 11 11 11 10 8
15 13 11 10 8 8 6 5 4 4 5 5 5 5 5 6 6 6 6 5 4 3 4 4 4 5 5 4 4 4 3 3 2 2 4 7 8 10 12 11 11 10 11
15 12 11 9 10 8 6 6 7 8 7 7 7 7 7 7 8 7 7 6 6 5 5 4 4 3 2 3 2 1 1 2 3 4 4 7 9 9 11 12 12 12 12
14 12 9 8 7 5 5 6 6 6 7 7 8 9 9 9 9 9 10 9 9 7 6 5 4 4 3 3 3 2 1 1 2 3 4 5 7 10 11 12 12 11 11
16 11 12 8 7 7 7 6 5 5 4 6 7 8 9 9 10 10 11 11 12 9 8 6 6 5 5 5 5 4 3 1 1 1 1 3 5 7 10 13 15 12 11
11 13 10 9 8 8 7 6 4 3 4 7 7 8 10 11 11 11 11 12 12 9 9 9 9 8 8 7 6 5 4 3 2 1 2 4 5 5 6 11 12 14 13
12 14 12 9 9 7 6 5 4 4 5 7 8 9 11 12 13 13 13 15 12 12 12 12 12 10 11 10 9 8 7 6 5 3 4 4 6 5 4 6 9 11 14
10 9 8 9 6 5 5 4 4 4 5 6 9 10 13 14 15 14 16 18 14 14 15 15 16 13 13 14 11 11 10 9 8 7 8 4 6 5 4 5 5 6 10
7 9 10 8 3 4 5 5 5 5 8 8 7 9 12 13 16 16 17 18 17 18 21 18 18 18 17 13 9 13 14 12 12 11 10 8 5 5 5 3 4 7 8
8 6 2 8 9 7 4 2 2 5 4 7 9 12 12 12 13 13 16 18 20 19 21 22 22 20 16 16 15 13 12 11 10 11 10 11 8 7 5 2 3 5 8
8 9 8 8 7 10 8 6 5 3 6 7 17 18 19 18 15 14 16 16 18 19 21 23 24 26 26 19 21 17 11 18 13 8 13 11 9 7 4 1 1 4 6
7 7 12 15 14 13 11 10 11 9 11 12 15 16 19 18 17 17 15 15 17 17 20 21 20 23 23 27 12 17 10 7 15 18 9 9 7 6 4 2 3 2 4
14 13 12 11 12 9 9 11 11 11 10 12 15 20 19 17 16 15 14 14 13 13 17 19 20 19 20 22 20 12 11 6 3 11 17 12 6 6 5 5 5 4 5
10 10 9 8 11 12 11 11 10 10 14 19 23 24 22 19 17 12 11 7 6 5 5 6 8 9 5 4 4 2 7 9 7 5 7 9 10 12 8 8 7 6 4
Wind_Direction
146 65 4 38 64 127 127 132 130 117 119 117 123 123 113 106 88 71 57 47 33 21 0 354 345 317 303 103 127 128 184 182 176 167 141 146 137 129 129 132 132 131 117
137 105 52 52 79 133 134 137 142 134 133 137 135 121 114 110 82 69 58 45 19 358 349 340 337 318 296 35 264 224 204 227 208 221 158 178 153 140 134 142 140 138 136
140 146 111 88 77 107 154 148 152 146 150 143 148 133 114 104 64 60 44 30 13 5 348 351 351 349 340 345 340 312 315 309 316 263 182 233 216 175 147 144 150 142 143
143 150 134 107 97 112 143 159 164 170 166 154 148 116 99 84 59 54 39 38 19 8 6 1 9 7 351 325 338 345 341 320 291 298 215 173 221 215 164 171 169 170 172
155 159 166 150 137 145 144 162 181 180 182 145 75 48 39 35 32 47 49 52 27 15 1 356 352 351 342 354 344 335 322 295 291 282 272 206 202 231 216 197 192 199 196
164 178 175 162 155 106 74 57 45 55 47 40 32 34 35 23 26 28 25 19 13 3 3 15 6 351 350 337 343 351 359 3 278 250 243 234 223 243 290 250 220 212 220
175 173 166 160 147 123 118 121 111 94 95 91 66 61 56 54 47 46 50 39 24 22 29 19 15 13 13 17 16 330 301 4 315 299 287 284 270 268 285 263 252 240 220
170 170 160 175 172 166 144 136 128 112 85 61 51 47 60 66 72 76 83 83 81 77 66 46 35 39 45 49 52 46 45 15 355 40 10 0 1 321 297 283 284 244 238
169 158 175 182 169 141 124 99 112 116 99 89 75 64 67 77 77 70 67 59 58 56 45 34 33 40 54 55 51 50 52 50 59 52 43 34 4 357 351 327 302 267 245
176 189 188 178 140 101 130 152 168 161 144 120 96 79 66 72 71 64 40 39 42 37 26 20 24 42 53 53 54 56 48 38 31 32 27 12 359 350 338 311 315 296 257
204 210 192 168 164 153 162 184 206 213 198 177 169 145 167 315 0 6 23 14 16 15 30 33 35 37 49 64 61 56 40 27 14 17 9 357 349 351 356 334 339 334 268
203 210 203 189 192 180 190 194 193 233 244 246 268 286 297 324 328 336 345 7 9 15 12 12 16 23 24 17 14 17 19 19 7 349 342 353 346 342 344 350 350 348 335
204 212 201 207 210 212 210 204 229 253 253 251 249 254 257 277 286 293 298 306 324 346 339 341 340 341 337 334 333 334 331 319 334 349 13 354 350 340 336 335 337 334 337
209 214 212 214 218 228 235 235 240 249 256 256 257 254 263 276 277 280 289 288 283 286 297 307 314 321 315 314 322 330 350 2 18 38 50 8 360 343 333 329 326 322 326
228 222 220 213 221 226 235 249 248 245 246 256 259 255 256 267 273 277 274 272 269 268 267 264 268 290 300 319 325 330 348 357 28 38 29 17 6 359 341 332 330 327 324
228 219 208 214 227 227 238 244 245 246 252 254 258 257 252 261 274 283 286 284 277 264 259 256 250 243 246 255 259 266 300 353 35 38 36 34 18 13 8 3 350 336 328
220 201 198 203 220 228 240 242 240 247 258 266 267 265 258 258 269 273 278 278 277 272 260 248 243 244 242 231 242 234 230 246 180 98 100 38 49 48 24 8 2 1 356
212 201 195 195 207 225 243 251 255 263 269 275 276 273 266 264 262 267 267 268 271 264 256 250 246 250 244 235 238 237 232 243 229 278 175 128 82 58 30 19 11 10 7
195 185 195 199 217 226 245 259 272 275 269 279 280 275 271 264 260 259 263 263 259 257 249 244 246 235 244 239 238 235 227 226 222 237 232 179 116 89 35 44 30 19 12
184 184 190 200 225 246 253 264 258 265 289 274 276 279 284 278 271 260 262 261 259 253 250 237 239 236 241 241 236 242 240 234 223 224 213 240 146 112 80 54 17 360 1
175 179 192 207 254 334 353 344 343 0 337 321 320 302 286 278 276 269 269 272 265 256 250 245 244 241 235 232 240 251 255 246 237 224 209 213 196 135 123 81 3 338 324
169 180 47 26 20 13 355 328 312 317 313 318 325 318 314 305 298 281 270 271 270 267 260 252 242 243 247 220 228 247 259 245 234 220 209 206 200 162 150 53 348 335 323
43 29 26 27 39 41 28 24 12 5 343 345 346 338 331 322 316 308 296 285 279 273 264 257 249 243 246 232 221 227 246 252 252 200 217 216 189 177 158 229 304 325 320
32 51 76 73 56 47 43 45 42 26 359 339 329 318 319 320 322 320 309 298 288 280 272 266 262 254 248 252 230 235 247 275 244 252 208 219 198 207 226 218 276 278 316
66 64 62 54 46 41 44 43 32 16 349 334 330 328 325 321 320 315 308 304 296 288 280 275 274 265 258 252 242 217 210 203 206 244 253 240 217 258 240 263 289 250 297
54 52 49 38 31 27 25 21 12 357 350 342 342 339 329 323 320 315 314 324 350 4 7 24 52 52 61 93 74 22 233 203 220 234 235 235 274 287 278 274 275 286 285